Regional Weather Roundup
Issued by NWS

Home | Current Version | Previous Version | Graphics & Text | Print | Product List | Glossary On
Versions: 1 2 3 4 5 6 7 8 9 10 11 12 13 14 15 16 17 18 19 20 21 22 23 24 25 26 27 28 29 30 31 32 33 34 35 36 37 38 39 40 41 42 43 44 45 46 47 48 49 50
000
ASUS45 KSLC 240510
RWRUT

UTAH REGIONAL WEATHER ROUNDUP
NATIONAL WEATHER SERVICE SALT LAKE CITY UT
1000 PM MST FRI FEB 23 2018

UTZ001>011-023>025-240600-

NORTHERN UTAH

CITY           SKY/WX    TMP DP  RH WIND       PRES   REMARKS
BRIGHAM CITY   CLEAR     13   6  73 CALM      30.19R
HILL AFB       FOG       13  11  92 CALM      30.15R VSB 1/4
LOGAN          PTCLDY     4  -1  80 S6        30.17R HAZE    WCI  -7
OGDEN          CLEAR     18  12  77 NW5       30.16R WCI  11
SALT LAKE CITY PTCLDY    17  14  88 SW5       30.17S WCI  10
WENDOVER       CLEAR     26   5  40 NW14G21   30.18S WCI  14
HEBER CITY     FLURRIES  16  10  79 S3        30.07S
WEST JORDAN    CLEAR     14  13  95 SW10      30.17S WCI   2

$$

UTZ011>015-024>027-240600-

CENTRAL/NORTHEAST UTAH

CITY           SKY/WX    TMP DP  RH WIND       PRES   REMARKS
PROVO AIRPORT  CLOUDY    22  17  81 N5        30.18R WCI  16
MOAB/CANYONLAN PTCLDY    28  16  60 W16       29.99S WCI  16
DELTA          CLOUDY    16  12  86 SW6       30.17S WCI   7
PRICE          CLEAR     18   8  65 NW9       30.01R WCI   7
VERNAL         PTCLDY    15  12  88 CALM      29.98R

$$

UTZ013>016-019>022-027-240600-

SOUTHERN UTAH

CITY           SKY/WX    TMP DP  RH WIND       PRES   REMARKS
BRYCE CANYON   PTCLDY     6   3  87 NW9       30.01R WCI  -8
CEDAR CITY     PTCLDY    11   8  88 N6        30.11R WCI   1
MILFORD        PTCLDY    11   7  84 NW3       30.16R
ST GEORGE      CLEAR     33  27  78 S6        30.19R WCI  28
HANKSVILLE     CLEAR     28   9  43 W8        30.08R WCI  20
BLANDING         N/A     23  17  79 N6        30.04S WCI  15

$$

REGIONAL REPORTS     COLORADO/ARIZONA

CITY           SKY/WX    TMP DP  RH WIND       PRES   REMARKS
CRAIG, CO      CLOUDY    18  12  77 SW12      29.94S WCI   5
GRAND JUNCTION MOCLDY    30  24  78 N5        29.97S WCI  25
RIFLE, CO      CLOUDY    25  23  92 CALM      29.94S
MONTROSE, CO   CLOUDY    26  21  81 W8        29.97R WCI  18
CORTEZ, CO     PTCLDY    21  20  96 CALM      29.97R
COLORADO CITY    N/A     28  18  64 MISG      30.12R
PAGE, AZ       PTCLDY    33  20  58 W8        30.05R WCI  26
GRAND CANYON   MOCLDY    18  16  92 CALM      30.02R
KINGMAN, AZ    CLEAR     29  26  89 S8        30.16R WCI  21
FLAGSTAFF, AZ  CLOUDY    19  16  88 W5        29.99R WCI  12

$$

REGIONAL REPORTS    NEVADA/IDAHO/WYOMING

CITY           SKY/WX    TMP DP  RH WIND       PRES   REMARKS
LAS VEGAS, NV  CLEAR     44   9  23 NW9       30.20R
ELY, NY        CLEAR     13   4  67 NW6       30.17R WCI   4
ELKO, NV       MOCLDY    16  10  77 W6        30.22S WCI   7
POCATELLO, ID  CLEAR     19   8  62 SW18      30.12F WCI   4
BURLEY, ID     MOCLDY    13   5  70 SW8       30.16S WCI   2
EVANSTON, WY   CLEAR      5   2  87 SW14      29.99S WCI -12
ROCK SPRINGS,  PTCLDY    14   9  80 SW22      29.91F WCI  -4

$$



USA.gov is the U.S. government's official web portal to all federal, state and local government web resources and services.